Location: Newark
(48.7875°N, 2.3928°E)
Time: 19:23:41
(UTC+00:00)

N. Korean satellite - Pass Details

Date: 23 October 2019
Orbit: 456 x 506 km, 97.2° (Epoch: 10 November)

Event Time Altitude Azimuth Distance (km) Brightness Sun altitude
Rises 05:03:50 0° 24° (NNE) 2,566 10.5 -13.6°
Reaches altitude 10° 05:06:13 10° 39° (NE) 1,689 9.8 -13.2°
Maximum altitude 05:09:12 24° 94° (E) 1,075 9.3 -12.7°
Drops below altitude 10° 05:12:11 10° 149° (SSE) 1,698 9.8 -12.2°
Sets 05:14:34 0° 164° (SSE) 2,582 10.5 -11.8°
